QPF
0.00 0.00 0.00 0.00 0.00 0.00 0.00 0.00 0.00 0.00 0.00 0.00 0.00 0.00 0.00 0.00 0.00 0.00 0.00 0.00 0.00 0.00 0.00 0.00 0.00 0.00 0.01 0.01 0.00 0.01 0.01 0.01 0.02 0.02 0.02 0.03 0.02 0.02 0.03 0.05 0.05 0.06 0.06 0.05
0.00 0.00 0.00 0.00 0.00 0.00 0.00 0.00 0.00 0.00 0.00 0.00 0.00 0.00 0.00 0.00 0.00 0.00 0.00 0.00 0.00 0.00 0.00 0.00 0.00 0.01 0.01 0.01 0.01 0.01 0.01 0.01 0.01 0.01 0.01 0.02 0.02 0.02 0.03 0.04 0.06 0.06 0.05 0.05
0.00 0.00 0.00 0.00 0.00 0.00 0.00 0.00 0.00 0.00 0.00 0.00 0.00 0.00 0.00 0.00 0.00 0.00 0.00 0.00 0.00 0.00 0.00 0.00 0.00 0.00 0.00 0.00 0.01 0.01 0.01 0.01 0.01 0.01 0.02 0.02 0.01 0.01 0.02 0.03 0.03 0.04 0.04 0.05
0.00 0.00 0.00 0.00 0.00 0.00 0.00 0.00 0.00 0.00 0.00 0.00 0.00 0.00 0.00 0.00 0.00 0.00 0.00 0.00 0.00 0.00 0.00 0.00 0.00 0.00 0.00 0.00 0.01 0.01 0.01 0.01 0.02 0.01 0.02 0.01 0.01 0.01 0.02 0.03 0.04 0.04 0.04 0.04
0.00 0.00 0.00 0.00 0.00 0.00 0.00 0.00 0.00 0.00 0.00 0.00 0.00 0.00 0.00 0.00 0.00 0.00 0.00 0.00 0.00 0.00 0.00 0.00 0.00 0.00 0.00 0.00 0.01 0.01 0.02 0.02 0.02 0.02 0.02 0.03 0.03 0.03 0.03 0.04 0.04 0.05 0.06 0.05
0.00 0.00 0.00 0.00 0.00 0.00 0.00 0.00 0.00 0.00 0.00 0.00 0.00 0.00 0.00 0.00 0.00 0.00 0.00 0.00 0.00 0.00 0.00 0.00 0.00 0.00 0.01 0.01 0.02 0.02 0.02 0.03 0.04 0.04 0.04 0.05 0.03 0.03 0.03 0.04 0.04 0.04 0.04 0.04
0.00 0.00 0.00 0.00 0.00 0.00 0.00 0.00 0.00 0.00 0.00 0.00 0.00 0.00 0.00 0.00 0.00 0.00 0.00 0.00 0.00 0.00 0.01 0.00 0.00 0.00 0.01 0.02 0.02 0.03 0.03 0.03 0.03 0.03 0.03 0.04 0.03 0.03 0.04 0.04 0.03 0.03 0.03 0.04
0.00 0.00 0.00 0.00 0.00 0.00 0.00 0.00 0.00 0.00 0.00 0.00 0.00 0.00 0.00 0.00 0.00 0.00 0.00 0.01 0.01 0.01 0.01 0.01 0.01 0.01 0.02 0.02 0.02 0.03 0.03 0.02 0.01 0.02 0.02 0.02 0.03 0.03 0.03 0.03 0.04 0.04 0.04 0.05
0.00 0.00 0.00 0.00 0.00 0.00 0.00 0.00 0.00 0.00 0.00 0.00 0.00 0.00 0.00 0.00 0.01 0.01 0.02 0.03 0.03 0.03 0.02 0.02 0.02 0.01 0.01 0.01 0.02 0.02 0.02 0.02 0.02 0.02 0.02 0.02 0.02 0.02 0.03 0.03 0.04 0.03 0.02 0.03
0.00 0.00 0.00 0.00 0.00 0.00 0.00 0.00 0.00 0.00 0.00 0.00 0.00 0.01 0.01 0.01 0.01 0.02 0.04 0.05 0.05 0.04 0.03 0.02 0.02 0.02 0.02 0.01 0.02 0.02 0.02 0.02 0.03 0.03 0.02 0.02 0.02 0.03 0.04 0.04 0.04 0.03 0.03 0.03
0.01 0.00 0.00 0.00 0.00 0.00 0.00 0.00 0.01 0.01 0.01 0.01 0.01 0.01 0.01 0.01 0.01 0.01 0.02 0.04 0.04 0.03 0.03 0.02 0.02 0.01 0.01 0.01 0.02 0.02 0.01 0.01 0.01 0.02 0.02 0.03 0.04 0.04 0.05 0.05 0.05 0.06 0.07 0.06
0.02 0.01 0.01 0.01 0.01 0.01 0.01 0.01 0.01 0.01 0.02 0.01 0.01 0.01 0.01 0.01 0.02 0.02 0.03 0.03 0.03 0.04 0.03 0.03 0.02 0.01 0.01 0.01 0.01 0.01 0.01 0.01 0.01 0.01 0.01 0.02 0.03 0.04 0.06 0.06 0.07 0.08 0.09 0.09
0.01 0.01 0.01 0.01 0.01 0.01 0.01 0.02 0.02 0.02 0.02 0.02 0.02 0.01 0.02 0.03 0.03 0.03 0.03 0.02 0.03 0.04 0.03 0.03 0.02 0.02 0.02 0.01 0.01 0.01 0.01 0.01 0.01 0.01 0.01 0.02 0.03 0.04 0.04 0.05 0.08 0.08 0.08 0.09
0.01 0.01 0.01 0.01 0.01 0.02 0.02 0.03 0.03 0.03 0.03 0.03 0.03 0.03 0.03 0.03 0.03 0.03 0.03 0.03 0.03 0.02 0.02 0.02 0.01 0.02 0.02 0.02 0.01 0.01 0.01 0.01 0.01 0.02 0.03 0.04 0.04 0.04 0.04 0.05 0.06 0.05 0.05 0.06
0.01 0.02 0.01 0.01 0.01 0.01 0.01 0.02 0.02 0.02 0.02 0.02 0.03 0.03 0.03 0.03 0.03 0.02 0.02 0.02 0.02 0.01 0.01 0.01 0.01 0.01 0.01 0.01 0.01 0.01 0.02 0.03 0.04 0.04 0.04 0.04 0.03 0.03 0.03 0.03 0.03 0.03 0.02 0.03
0.01 0.02 0.02 0.02 0.02 0.02 0.01 0.01 0.02 0.02 0.01 0.01 0.01 0.02 0.02 0.02 0.02 0.02 0.02 0.02 0.01 0.01 0.01 0.01 0.01 0.01 0.01 0.01 0.01 0.01 0.02 0.03 0.03 0.03 0.03 0.03 0.02 0.02 0.02 0.02 0.02 0.02 0.02 0.03
0.02 0.03 0.03 0.03 0.03 0.02 0.02 0.02 0.01 0.01 0.01 0.01 0.01 0.01 0.01 0.01 0.01 0.02 0.02 0.02 0.01 0.01 0.00 0.00 0.00 0.00 0.01 0.01 0.01 0.01 0.01 0.01 0.02 0.02 0.02 0.02 0.02 0.02 0.01 0.01 0.01 0.02 0.03 0.03
0.02 0.02 0.03 0.04 0.03 0.02 0.02 0.02 0.02 0.01 0.01 0.01 0.01 0.01 0.01 0.01 0.01 0.01 0.01 0.01 0.01 0.01 0.01 0.01 0.01 0.00 0.00 0.01 0.01 0.00 0.01 0.01 0.01 0.01 0.01 0.01 0.01 0.01 0.01 0.01 0.01 0.01 0.01 0.01
0.02 0.02 0.03 0.03 0.03 0.03 0.02 0.02 0.02 0.02 0.02 0.02 0.02 0.02 0.02 0.02 0.02 0.01 0.01 0.01 0.01 0.01 0.00 0.00 0.01 0.01 0.00 0.00 0.01 0.01 0.00 0.01 0.01 0.01 0.01 0.01 0.01 0.00 0.01 0.01 0.01 0.01 0.01 0.00
0.02 0.03 0.04 0.04 0.03 0.03 0.03 0.03 0.02 0.02 0.02 0.02 0.02 0.02 0.02 0.02 0.03 0.02 0.02 0.01 0.01 0.00 0.00 0.00 0.00 0.00 0.00 0.00 0.01 0.01 0.01 0.01 0.01 0.01 0.01 0.00 0.01 0.01 0.01 0.01 0.01 0.01 0.01 0.01
0.03 0.04 0.05 0.04 0.03 0.03 0.03 0.03 0.03 0.02 0.03 0.03 0.03 0.03 0.03 0.03 0.03 0.03 0.03 0.02 0.01 0.01 0.01 0.01 0.00 0.00 0.00 0.00 0.00 0.00 0.00 0.00 0.00 0.00 0.00 0.01 0.01 0.01 0.01 0.01 0.01 0.00 0.00 0.00
0.04 0.04 0.05 0.04 0.04 0.04 0.04 0.04 0.03 0.02 0.02 0.03 0.04 0.04 0.04 0.04 0.03 0.02 0.03 0.03 0.02 0.02 0.01 0.01 0.01 0.00 0.00 0.00 0.00 0.00 0.00 0.00 0.00 0.00 0.00 0.00 0.00 0.00 0.00 0.00 0.00 0.00 0.00 0.00
0.04 0.04 0.04 0.04 0.05 0.05 0.04 0.03 0.03 0.02 0.02 0.03 0.04 0.05 0.05 0.04 0.04 0.02 0.02 0.02 0.02 0.02 0.02 0.02 0.01 0.01 0.01 0.01 0.01 0.01 0.00 0.00 0.00 0.00 0.00 0.00 0.00 0.00 0.00 0.00 0.00 0.00 0.00 0.00
0.03 0.03 0.04 0.04 0.06 0.06 0.05 0.04 0.04 0.04 0.04 0.04 0.04 0.04 0.05 0.04 0.04 0.04 0.02 0.01 0.01 0.01 0.01 0.01 0.01 0.01 0.01 0.01 0.00 0.00 0.01 0.01 0.01 0.00 0.01 0.01 0.01 0.00 0.01 0.01 0.01 0.01 0.00 0.00
0.03 0.04 0.04 0.04 0.06 0.07 0.07 0.06 0.04 0.05 0.06 0.07 0.05 0.04 0.03 0.03 0.04 0.04 0.03 0.01 0.00 0.00 0.00 0.00 0.01 0.01 0.01 0.00 0.00 0.00 0.00 0.01 0.01 0.00 0.00 0.00 0.01 0.01 0.01 0.01 0.01 0.01 0.01 0.01
0.05 0.05 0.05 0.04 0.05 0.06 0.06 0.05 0.04 0.04 0.03 0.04 0.06 0.05 0.03 0.03 0.03 0.04 0.03 0.01 0.01 0.01 0.01 0.01 0.01 0.01 0.01 0.01 0.01 0.01 0.00 0.00 0.00 0.00 0.01 0.01 0.01 0.01 0.01 0.01 0.01 0.01 0.01 0.01
0.05 0.05 0.04 0.04 0.04 0.04 0.05 0.04 0.04 0.04 0.03 0.03 0.03 0.03 0.03 0.03 0.03 0.03 0.02 0.01 0.01 0.01 0.01 0.01 0.01 0.01 0.01 0.01 0.01 0.01 0.00 0.00 0.00 0.00 0.00 0.00 0.00 0.00 0.00 0.00 0.00 0.00 0.00 0.00
MSLP
1011.95 1011.81 1011.68 1011.57 1011.48 1011.39 1011.29 1011.15 1010.96 1010.73 1010.46 1010.18 1009.93 1009.75 1009.67 1009.71 1009.88 1010.17 1010.55 1010.99 1011.44 1011.87 1012.24 1012.55 1012.80 1013.00 1013.16 1013.32 1013.50 1013.69 1013.90 1014.12 1014.34 1014.54 1014.71 1014.86 1014.99 1015.12 1015.25 1015.40 1015.59 1015.81 1016.05 1016.29
1012.20 1011.95 1011.68 1011.38 1011.08 1010.78 1010.49 1010.21 1009.95 1009.70 1009.49 1009.31 1009.20 1009.16 1009.21 1009.36 1009.60 1009.92 1010.29 1010.70 1011.11 1011.51 1011.87 1012.20 1012.50 1012.77 1013.03 1013.28 1013.53 1013.78 1014.02 1014.24 1014.44 1014.62 1014.76 1014.88 1015.00 1015.12 1015.27 1015.46 1015.69 1015.95 1016.23 1016.49
1012.33 1012.01 1011.61 1011.16 1010.67 1010.19 1009.73 1009.32 1008.98 1008.71 1008.53 1008.44 1008.44 1008.53 1008.71 1008.95 1009.26 1009.61 1009.99 1010.39 1010.79 1011.18 1011.56 1011.93 1012.29 1012.65 1013.00 1013.35 1013.68 1013.99 1014.26 1014.49 1014.68 1014.82 1014.93 1015.02 1015.12 1015.24 1015.41 1015.63 1015.89 1016.18 1016.49 1016.78
1012.32 1011.94 1011.44 1010.87 1010.24 1009.61 1009.02 1008.50 1008.09 1007.80 1007.64 1007.61 1007.71 1007.91 1008.19 1008.53 1008.91 1009.31 1009.72 1010.13 1010.54 1010.95 1011.36 1011.79 1012.23 1012.67 1013.11 1013.54 1013.94 1014.30 1014.59 1014.82 1014.99 1015.10 1015.17 1015.23 1015.31 1015.43 1015.60 1015.83 1016.12 1016.44 1016.78 1017.09
1012.16 1011.73 1011.18 1010.52 1009.80 1009.06 1008.37 1007.78 1007.32 1007.02 1006.88 1006.91 1007.09 1007.38 1007.75 1008.18 1008.63 1009.08 1009.53 1009.98 1010.42 1010.86 1011.33 1011.81 1012.31 1012.83 1013.34 1013.84 1014.28 1014.66 1014.97 1015.18 1015.32 1015.39 1015.42 1015.45 1015.50 1015.60 1015.77 1016.01 1016.31 1016.65 1017.00 1017.33
1011.88 1011.44 1010.85 1010.15 1009.38 1008.59 1007.85 1007.22 1006.74 1006.44 1006.33 1006.40 1006.65 1007.01 1007.47 1007.97 1008.49 1009.01 1009.51 1010.00 1010.48 1010.97 1011.47 1012.00 1012.55 1013.12 1013.67 1014.20 1014.66 1015.04 1015.33 1015.52 1015.61 1015.64 1015.63 1015.62 1015.65 1015.73 1015.89 1016.12 1016.43 1016.77 1017.13 1017.48
1011.56 1011.11 1010.52 1009.81 1009.04 1008.24 1007.50 1006.87 1006.40 1006.12 1006.05 1006.18 1006.48 1006.91 1007.43 1008.00 1008.58 1009.15 1009.70 1010.23 1010.75 1011.27 1011.80 1012.35 1012.92 1013.50 1014.06 1014.58 1015.03 1015.38 1015.64 1015.78 1015.83 1015.82 1015.77 1015.73 1015.72 1015.79 1015.93 1016.16 1016.46 1016.81 1017.17 1017.53
1011.25 1010.80 1010.23 1009.56 1008.82 1008.07 1007.37 1006.78 1006.36 1006.12 1006.10 1006.27 1006.62 1007.10 1007.68 1008.30 1008.93 1009.54 1010.13 1010.69 1011.23 1011.76 1012.29 1012.84 1013.40 1013.95 1014.48 1014.95 1015.36 1015.66 1015.86 1015.96 1015.97 1015.92 1015.84 1015.77 1015.75 1015.80 1015.94 1016.16 1016.45 1016.80 1017.17 1017.53
1011.00 1010.57 1010.04 1009.42 1008.76 1008.09 1007.47 1006.96 1006.60 1006.43 1006.46 1006.68 1007.08 1007.60 1008.21 1008.86 1009.52 1010.16 1010.77 1011.34 1011.88 1012.40 1012.92 1013.43 1013.94 1014.43 1014.89 1015.30 1015.63 1015.87 1016.02 1016.07 1016.04 1015.97 1015.87 1015.80 1015.78 1015.83 1015.96 1016.18 1016.48 1016.83 1017.20 1017.59
1010.82 1010.41 1009.94 1009.41 1008.84 1008.28 1007.77 1007.37 1007.10 1007.01 1007.10 1007.36 1007.79 1008.34 1008.97 1009.64 1010.31 1010.96 1011.57 1012.13 1012.66 1013.15 1013.62 1014.07 1014.50 1014.92 1015.29 1015.61 1015.86 1016.04 1016.12 1016.14 1016.09 1016.01 1015.93 1015.87 1015.86 1015.93 1016.08 1016.32 1016.62 1016.98 1017.37 1017.76
1010.69 1010.32 1009.93 1009.49 1009.04 1008.61 1008.22 1007.93 1007.76 1007.75 1007.90 1008.21 1008.66 1009.22 1009.86 1010.53 1011.20 1011.84 1012.43 1012.98 1013.47 1013.92 1014.33 1014.71 1015.06 1015.38 1015.66 1015.89 1016.07 1016.17 1016.22 1016.21 1016.16 1016.10 1016.05 1016.03 1016.07 1016.19 1016.37 1016.63 1016.96 1017.32 1017.72 1018.13
1010.57 1010.26 1009.95 1009.62 1009.29 1008.99 1008.73 1008.55 1008.48 1008.55 1008.75 1009.09 1009.56 1010.12 1010.74 1011.40 1012.05 1012.68 1013.25 1013.77 1014.23 1014.64 1014.99 1015.31 1015.58 1015.81 1016.00 1016.15 1016.25 1016.31 1016.33 1016.32 1016.30 1016.28 1016.28 1016.33 1016.44 1016.61 1016.85 1017.15 1017.50 1017.88 1018.28 1018.69
1010.43 1010.19 1009.96 1009.74 1009.53 1009.35 1009.21 1009.14 1009.16 1009.28 1009.53 1009.89 1010.36 1010.91 1011.52 1012.15 1012.78 1013.39 1013.94 1014.44 1014.88 1015.25 1015.56 1015.81 1016.02 1016.18 1016.30 1016.38 1016.44 1016.47 1016.48 1016.49 1016.50 1016.55 1016.63 1016.76 1016.95 1017.20 1017.50 1017.84 1018.22 1018.61 1019.01 1019.40
1010.24 1010.08 1009.94 1009.82 1009.72 1009.65 1009.62 1009.64 1009.72 1009.90 1010.17 1010.54 1011.00 1011.53 1012.11 1012.72 1013.33 1013.91 1014.45 1014.94 1015.35 1015.70 1015.98 1016.20 1016.36 1016.47 1016.54 1016.59 1016.61 1016.63 1016.65 1016.69 1016.76 1016.87 1017.04 1017.26 1017.54 1017.87 1018.23 1018.63 1019.03 1019.43 1019.81 1020.16
1010.04 1009.94 1009.89 1009.86 1009.86 1009.88 1009.93 1010.02 1010.17 1010.38 1010.66 1011.03 1011.47 1011.97 1012.52 1013.10 1013.68 1014.25 1014.77 1015.25 1015.66 1015.99 1016.26 1016.46 1016.59 1016.68 1016.72 1016.74 1016.76 1016.77 1016.82 1016.90 1017.03 1017.22 1017.47 1017.78 1018.14 1018.54 1018.97 1019.40 1019.82 1020.20 1020.56 1020.87
1009.82 1009.80 1009.82 1009.88 1009.96 1010.06 1010.18 1010.33 1010.52 1010.76 1011.05 1011.40 1011.82 1012.29 1012.80 1013.35 1013.90 1014.44 1014.95 1015.41 1015.82 1016.15 1016.41 1016.60 1016.73 1016.80 1016.84 1016.85 1016.86 1016.89 1016.96 1017.08 1017.26 1017.52 1017.84 1018.22 1018.66 1019.12 1019.59 1020.04 1020.47 1020.84 1021.15 1021.40
1009.64 1009.68 1009.77 1009.90 1010.05 1010.23 1010.41 1010.62 1010.85 1011.11 1011.40 1011.74 1012.14 1012.57 1013.04 1013.54 1014.06 1014.56 1015.05 1015.50 1015.89 1016.22 1016.48 1016.66 1016.79 1016.86 1016.89 1016.91 1016.93 1016.97 1017.06 1017.21 1017.43 1017.73 1018.10 1018.54 1019.02 1019.52 1020.01 1020.48 1020.89 1021.24 1021.50 1021.69
1009.50 1009.60 1009.76 1009.96 1010.18 1010.42 1010.68 1010.94 1011.21 1011.50 1011.81 1012.14 1012.51 1012.91 1013.34 1013.79 1014.25 1014.72 1015.16 1015.58 1015.95 1016.26 1016.51 1016.69 1016.81 1016.88 1016.92 1016.93 1016.96 1017.01 1017.11 1017.27 1017.52 1017.84 1018.23 1018.69 1019.19 1019.70 1020.20 1020.66 1021.05 1021.36 1021.58 1021.70
1009.41 1009.57 1009.79 1010.06 1010.36 1010.67 1011.00 1011.33 1011.65 1011.98 1012.31 1012.65 1013.00 1013.37 1013.76 1014.15 1014.56 1014.96 1015.35 1015.72 1016.04 1016.33 1016.55 1016.72 1016.84 1016.91 1016.94 1016.96 1016.98 1017.03 1017.13 1017.29 1017.53 1017.84 1018.23 1018.68 1019.16 1019.66 1020.14 1020.57 1020.94 1021.21 1021.38 1021.45
1009.36 1009.57 1009.85 1010.18 1010.56 1010.96 1011.36 1011.77 1012.17 1012.55 1012.92 1013.28 1013.62 1013.97 1014.31 1014.64 1014.98 1015.32 1015.64 1015.94 1016.21 1016.45 1016.64 1016.79 1016.89 1016.95 1016.98 1017.00 1017.02 1017.06 1017.15 1017.29 1017.50 1017.78 1018.13 1018.54 1018.98 1019.44 1019.88 1020.27 1020.60 1020.84 1020.97 1021.01
1009.32 1009.57 1009.91 1010.31 1010.76 1011.24 1011.74 1012.23 1012.71 1013.16 1013.58 1013.96 1014.32 1014.64 1014.95 1015.23 1015.50 1015.76 1016.00 1016.23 1016.44 1016.62 1016.78 1016.90 1016.98 1017.04 1017.06 1017.08 1017.09 1017.12 1017.18 1017.29 1017.45 1017.68 1017.97 1018.32 1018.69 1019.09 1019.47 1019.81 1020.10 1020.31 1020.43 1020.45
1009.28 1009.57 1009.95 1010.41 1010.93 1011.49 1012.07 1012.65 1013.21 1013.73 1014.21 1014.63 1015.00 1015.32 1015.59 1015.82 1016.03 1016.21 1016.38 1016.54 1016.68 1016.82 1016.93 1017.02 1017.10 1017.14 1017.17 1017.18 1017.19 1017.20 1017.23 1017.30 1017.41 1017.57 1017.79 1018.05 1018.35 1018.66 1018.98 1019.27 1019.52 1019.70 1019.81 1019.84
1009.26 1009.57 1009.99 1010.49 1011.06 1011.69 1012.34 1012.99 1013.62 1014.21 1014.74 1015.19 1015.58 1015.89 1016.14 1016.33 1016.48 1016.60 1016.70 1016.80 1016.88 1016.97 1017.05 1017.12 1017.19 1017.23 1017.26 1017.28 1017.28 1017.28 1017.29 1017.31 1017.37 1017.46 1017.59 1017.77 1017.98 1018.21 1018.46 1018.69 1018.90 1019.07 1019.18 1019.23
1009.32 1009.64 1010.06 1010.58 1011.18 1011.84 1012.53 1013.23 1013.91 1014.54 1015.11 1015.59 1015.98 1016.29 1016.52 1016.68 1016.78 1016.85 1016.90 1016.94 1016.98 1017.03 1017.09 1017.15 1017.21 1017.27 1017.31 1017.33 1017.33 1017.33 1017.31 1017.30 1017.30 1017.33 1017.39 1017.48 1017.61 1017.76 1017.94 1018.12 1018.30 1018.45 1018.58 1018.65
1009.53 1009.84 1010.25 1010.76 1011.35 1012.01 1012.71 1013.41 1014.10 1014.75 1015.32 1015.81 1016.21 1016.50 1016.71 1016.84 1016.91 1016.93 1016.94 1016.94 1016.95 1016.98 1017.02 1017.08 1017.14 1017.21 1017.26 1017.29 1017.31 1017.30 1017.28 1017.24 1017.20 1017.17 1017.17 1017.19 1017.24 1017.33 1017.45 1017.59 1017.74 1017.89 1018.02 1018.12
1009.98 1010.26 1010.63 1011.09 1011.65 1012.26 1012.92 1013.60 1014.26 1014.88 1015.44 1015.91 1016.28 1016.55 1016.73 1016.83 1016.87 1016.87 1016.84 1016.81 1016.80 1016.81 1016.84 1016.90 1016.97 1017.04 1017.11 1017.16 1017.19 1017.19 1017.16 1017.11 1017.05 1016.99 1016.93 1016.91 1016.91 1016.95 1017.03 1017.13 1017.26 1017.39 1017.52 1017.64
1010.71 1010.95 1011.26 1011.66 1012.14 1012.68 1013.27 1013.87 1014.47 1015.03 1015.53 1015.95 1016.28 1016.52 1016.66 1016.73 1016.74 1016.71 1016.66 1016.61 1016.57 1016.57 1016.59 1016.64 1016.72 1016.80 1016.88 1016.95 1016.99 1017.00 1016.98 1016.93 1016.87 1016.79 1016.72 1016.67 1016.64 1016.65 1016.69 1016.77 1016.88 1017.00 1017.12 1017.24
Thickness
5784 5794 5794 5792 5792 5792 5788 5794 5792 5798 5803 5813 5820 5819 5818 5816 5811 5807 5802 5798 5794 5789 5784 5779 5775 5771 5768 5764 5761 5758 5753 5748 5744 5742 5739 5736 5733 5731 5728 5727 5725 5723 5722 5720
5767 5782 5784 5782 5790 5791 5790 5795 5797 5801 5804 5823 5824 5822 5816 5813 5809 5804 5800 5797 5794 5789 5783 5777 5773 5769 5765 5761 5758 5754 5749 5745 5741 5738 5735 5732 5730 5727 5724 5722 5720 5718 5716 5715
5759 5773 5770 5764 5784 5789 5790 5797 5798 5794 5806 5818 5814 5812 5812 5811 5809 5805 5802 5798 5793 5788 5782 5777 5772 5768 5762 5758 5755 5750 5746 5742 5738 5735 5732 5728 5726 5723 5719 5716 5714 5712 5711 5709
5755 5752 5738 5777 5803 5801 5795 5799 5805 5805 5810 5812 5811 5812 5813 5813 5810 5805 5802 5797 5792 5787 5781 5776 5772 5766 5761 5756 5751 5746 5741 5738 5734 5731 5727 5723 5721 5717 5714 5712 5709 5706 5704 5702
5744 5742 5752 5775 5786 5792 5787 5788 5804 5803 5804 5807 5808 5805 5806 5810 5809 5804 5801 5797 5791 5787 5781 5774 5769 5764 5758 5752 5747 5742 5737 5733 5730 5727 5723 5719 5715 5712 5709 5706 5703 5699 5696 5694
5732 5732 5739 5768 5786 5794 5786 5774 5799 5801 5799 5800 5797 5793 5798 5801 5802 5799 5796 5791 5786 5782 5776 5768 5763 5760 5753 5747 5742 5737 5734 5730 5726 5722 5718 5714 5710 5706 5703 5700 5696 5693 5689 5686
5722 5727 5749 5771 5778 5780 5759 5769 5789 5795 5795 5794 5792 5793 5793 5794 5792 5790 5786 5783 5779 5773 5767 5761 5757 5753 5747 5742 5737 5733 5730 5726 5721 5717 5713 5709 5705 5701 5697 5693 5689 5685 5681 5678
5719 5720 5736 5760 5765 5763 5764 5774 5780 5784 5787 5786 5785 5785 5784 5782 5780 5778 5774 5772 5769 5763 5757 5753 5750 5746 5740 5734 5731 5727 5723 5719 5715 5711 5707 5703 5698 5694 5690 5687 5682 5678 5675 5670
5725 5730 5738 5747 5751 5756 5761 5763 5768 5774 5777 5777 5775 5773 5773 5771 5768 5766 5764 5761 5759 5754 5747 5743 5741 5738 5733 5728 5724 5720 5715 5711 5706 5703 5700 5695 5691 5687 5683 5680 5678 5674 5670 5666
5710 5722 5729 5737 5742 5747 5752 5755 5761 5765 5768 5769 5765 5764 5761 5759 5756 5754 5752 5750 5748 5744 5738 5733 5731 5729 5725 5721 5717 5713 5708 5703 5699 5695 5691 5686 5683 5680 5678 5674 5671 5667 5664 5660
5697 5708 5716 5723 5728 5733 5738 5745 5750 5754 5757 5758 5755 5752 5750 5746 5744 5743 5741 5739 5737 5733 5728 5723 5721 5718 5716 5713 5709 5704 5700 5695 5692 5689 5684 5677 5672 5667 5666 5662 5661 5659 5657 5653
5687 5695 5701 5707 5715 5721 5725 5730 5735 5738 5740 5743 5743 5740 5738 5735 5734 5731 5729 5728 5725 5722 5719 5715 5712 5709 5706 5704 5701 5697 5692 5688 5685 5681 5675 5669 5663 5655 5648 5647 5645 5644 5642 5641
5678 5686 5690 5697 5703 5709 5713 5717 5722 5724 5726 5727 5728 5728 5726 5723 5722 5720 5717 5715 5713 5710 5708 5705 5702 5700 5697 5695 5693 5689 5685 5681 5677 5673 5667 5661 5656 5651 5644 5635 5631 5629 5627 5625
5668 5674 5679 5686 5691 5697 5701 5705 5709 5711 5712 5713 5713 5713 5712 5710 5708 5706 5704 5703 5701 5698 5696 5694 5691 5687 5686 5684 5682 5679 5676 5671 5668 5664 5659 5653 5648 5644 5640 5634 5628 5621 5614 5611
5658 5664 5670 5676 5680 5684 5688 5691 5693 5695 5697 5698 5699 5699 5699 5697 5695 5694 5693 5691 5690 5688 5685 5683 5680 5677 5675 5674 5671 5669 5666 5663 5659 5654 5649 5644 5639 5635 5630 5625 5620 5614 5607 5600
5648 5654 5660 5663 5666 5671 5675 5678 5681 5683 5684 5685 5685 5685 5686 5686 5684 5682 5681 5681 5679 5677 5674 5672 5669 5667 5665 5663 5661 5659 5655 5650 5648 5644 5640 5635 5630 5626 5622 5617 5612 5606 5602 5596
5636 5641 5646 5650 5654 5659 5663 5668 5671 5672 5673 5673 5673 5674 5673 5672 5671 5670 5670 5669 5668 5665 5663 5661 5658 5656 5654 5653 5651 5649 5646 5640 5635 5634 5631 5626 5622 5618 5614 5609 5604 5599 5595 5590
5631 5635 5639 5642 5645 5649 5652 5655 5658 5660 5660 5661 5663 5663 5661 5661 5660 5659 5658 5658 5656 5654 5652 5650 5648 5645 5644 5642 5640 5639 5636 5631 5628 5625 5621 5616 5613 5609 5604 5600 5597 5592 5587 5581
5624 5628 5632 5635 5638 5640 5642 5644 5647 5648 5649 5650 5651 5651 5651 5651 5650 5648 5648 5647 5645 5643 5640 5638 5634 5635 5633 5630 5629 5627 5625 5622 5617 5614 5610 5604 5602 5599 5596 5593 5589 5586 5581 5577
5617 5621 5625 5627 5630 5632 5633 5635 5637 5637 5638 5640 5640 5640 5639 5638 5638 5638 5637 5636 5635 5634 5631 5628 5626 5625 5622 5619 5618 5618 5616 5612 5608 5604 5600 5597 5594 5591 5588 5585 5582 5578 5575 5571
5611 5615 5617 5619 5621 5623 5625 5626 5627 5627 5628 5630 5630 5629 5628 5627 5628 5628 5627 5625 5622 5621 5619 5616 5617 5615 5613 5610 5608 5609 5607 5604 5601 5597 5594 5591 5587 5584 5581 5578 5575 5572 5568 5565
5604 5607 5609 5611 5613 5613 5615 5617 5617 5618 5619 5620 5620 5620 5618 5618 5618 5617 5616 5615 5612 5608 5610 5609 5608 5604 5602 5600 5602 5601 5598 5595 5592 5589 5586 5583 5581 5578 5574 5571 5568 5565 5562 5558
5597 5599 5601 5603 5604 5605 5606 5608 5609 5610 5610 5610 5610 5610 5610 5610 5610 5609 5605 5604 5602 5599 5601 5599 5594 5591 5589 5592 5593 5592 5588 5585 5582 5580 5577 5575 5573 5570 5568 5565 5562 5559 5556 5552
5591 5593 5594 5596 5598 5598 5598 5599 5600 5600 5601 5601 5602 5602 5602 5601 5600 5600 5598 5592 5591 5590 5591 5585 5581 5580 5579 5585 5583 5581 5578 5576 5574 5572 5570 5567 5566 5564 5561 5558 5555 5552 5549 5545
5586 5587 5589 5590 5591 5592 5592 5592 5592 5592 5593 5593 5593 5593 5594 5594 5593 5591 5588 5585 5581 5581 5581 5575 5572 5571 5574 5575 5574 5572 5569 5568 5566 5565 5563 5561 5559 5556 5553 5551 5548 5545 5542 5539
5580 5582 5583 5585 5586 5586 5586 5587 5588 5588 5588 5586 5585 5585 5585 5584 5583 5581 5578 5576 5575 5573 5573 5570 5567 5565 5568 5567 5565 5564 5563 5559 5557 5555 5555 5553 5551 5549 5547 5545 5542 5540 5537 5534
5575 5576 5577 5578 5579 5580 5582 5583 5583 5582 5581 5580 5577 5577 5576 5575 5574 5572 5571 5570 5568 5567 5566 5564 5563 5562 5561 5560 5559 5557 5555 5553 5552 5550 5548 5546 5544 5542 5540 5537 5535 5533 5530 5528